Flag for Finland Weather past 2 weeks in Rovaniemi, Finland

27 °F


Feels Like: 27 °F
Forecast: 24 / 37 °F
Wind: 2 mph from North

Location: Rovaniemi Airport

Current Time: Oct 10, 2015 at 1:54:56 AM

Latest Report: Oct 10, 2015 at 1:20 AM

Visibility: 10 mi

Pressure: 30.42 "Hg

Humidity: 93%

Dew point: 25 °F

Location of RovaniemiLocation

Historic Weather in Rovaniemi — Graph


Rovaniemi temperature yesterday

Maximum temperature yesterday: 37 °F (at 3:50 PM)
Minimum temperature yesterday: 23 °F (at 7:20 AM)
Average temperature yesterday: 29 °F

Past Weeks' High & Low Weather Summary

High55 °F (Sep 25, 3:50 PM)100% (Sep 25, 1:50 AM)30.57 "Hg (Sep 25, 1:50 AM)
Low21 °F (Oct 8, 7:50 AM)48% (Oct 8, 3:20 PM)28.88 "Hg (Oct 2, 2:50 PM)
Average40 °F85%30.02 "Hg
* Reported Sep 25 12:20 AM — Oct 10 12:20 AM, Rovaniemi, Weather by CustomWeather, © 2015

Note: Actual official high and low records may vary slightly from our data, if they occured in-between our weather recording intervals... More about our weather records


Rovaniemi weather history for previous 24 hours

Time TempWeatherWind HumidityBarometerVisibility
12:20 AM
Sat, Oct 10
28 °FClear.2 mph80%30.42 "Hg10 mi
11:50 PM
Fri, Oct 9
28 °FClear.3 mph80%30.42 "Hg10 mi
11:20 PM28 °FClear.3 mph80%30.42 "Hg10 mi
10:50 PM28 °FClear.3 mph80%30.42 "Hg10 mi
10:20 PM30 °FClear.5 mph75%30.42 "Hg10 mi
9:50 PM30 °FClear.5 mph75%30.42 "Hg10 mi
9:20 PM30 °FClear.7 mph80%30.42 "Hg10 mi
8:50 PM30 °FClear.5 mph86%30.42 "Hg10 mi
8:20 PM32 °FClear.5 mph80%30.42 "Hg10 mi
7:50 PM32 °FClear.6 mph80%30.42 "Hg10 mi
7:20 PM34 °FClear.3 mph75%30.45 "Hg10 mi
6:50 PM32 °FSunny.2 mph80%30.45 "Hg10 mi
6:20 PM34 °FSunny.3 mph70%30.45 "Hg10 mi
5:20 PM36 °FSunny.No wind60%30.45 "Hg10 mi
4:50 PM36 °FSunny.2 mph56%30.45 "Hg10 mi
4:20 PM36 °FSunny.1 mph56%30.45 "Hg10 mi
3:50 PM37 °FSunny.2 mph56%30.48 "Hg10 mi
3:20 PM36 °FPassing clouds.5 mph60%30.48 "HgN/A
2:50 PM36 °FPassing clouds.3 mph65%30.48 "HgN/A
2:20 PM36 °FPartly sunny.5 mph70%30.48 "HgN/A
1:50 PM36 °FPartly sunny.3 mph70%30.48 "HgN/A
1:20 PM34 °FPassing clouds.3 mph75%30.51 "HgN/A
12:50 PM34 °FSunny.5 mph75%30.51 "Hg10 mi
12:20 PM30 °FSunny.5 mph86%30.51 "Hg10 mi
11:50 AM30 °FSunny.5 mph86%30.51 "Hg10 mi
11:20 AM30 °FSunny.5 mph86%30.51 "Hg10 mi
10:50 AM28 °FSunny.3 mph93%30.51 "Hg10 mi
10:20 AM27 °FSunny.3 mph93%30.51 "Hg10 mi
9:50 AM27 °FSunny.5 mph86%30.51 "Hg10 mi
9:20 AM25 °FSunny.5 mph93%30.48 "Hg10 mi
8:50 AM23 °FClear.5 mph100%30.51 "Hg10 mi
8:20 AM23 °FClear.3 mph93%30.48 "Hg10 mi
7:50 AM23 °FClear.3 mph93%30.51 "Hg10 mi
7:20 AM23 °FClear.5 mph93%30.48 "Hg10 mi
6:20 AM25 °FClear.5 mph93%30.51 "Hg10 mi
5:50 AM25 °FClear.7 mph86%30.51 "Hg10 mi
5:20 AM25 °FClear.5 mph93%30.51 "Hg10 mi
4:50 AM25 °FClear.3 mph93%30.51 "Hg10 mi
4:20 AM27 °FClear.7 mph86%30.48 "Hg10 mi
3:50 AM27 °FClear.6 mph86%30.51 "Hg10 mi
3:20 AM27 °FClear.5 mph86%30.48 "Hg10 mi
2:50 AM27 °FClear.6 mph86%30.48 "Hg10 mi
2:20 AM27 °FClear.6 mph86%30.51 "Hg10 mi
1:50 AM27 °FClear.3 mph86%30.51 "Hg10 mi
1:20 AM27 °FClear.3 mph86%30.51 "Hg10 mi
Weather by CustomWeather, © 2015

See weather overviewHow to use our weather pages